Rolla, ND

7:21 PM CDT on April 27, 2017 (GMT -0500)
Rolla

Weather History for K06D - December, 2013

Change the Weather History Date:

Tuesday, December 17, 2013

  Actual Average (KRUG) Record (KRUG)
Temperature  
Mean Temperature 18 °F -  
Max Temperature 24 °F 21 °F 41 °F (1982)
Min Temperature 12 °F 3 °F -28 °F (1983)
Degree Days  
Heating Degree Days 47    
Moisture  
Dew Point 12 °F    
Average Humidity 82    
Maximum Humidity 93    
Minimum Humidity 67    
Precipitation  
Precipitation 0.05 in - - ()
Sea Level Pressure  
Sea Level Pressure 29.89 in    
Wind  
Wind Speed 23 mph (West)    
Max Wind Speed 38 mph    
Max Gust Speed 53 mph    
Visibility 7 miles    
Events Rain , Snow    
Averages and records for this station are not official NWS values.
T = Trace of Precipitation, MM = Missing Value Source: NWS Daily Summary

Daily Weather History Graph

Daily Weather History Graph

Search for Another Location

Airport or City:

Trip Planner

Search our weather history database for the weather conditions in past years. The results will help you decide how hot, cold, wet, or windy it might be!

Date:

Astronomy

Dec. 17, 2013 Rise Set
Actual Time 8:27 AM CST 4:42 PM CST
Civil Twilight 7:49 AM CST 5:19 PM CST
Nautical Twilight 7:09 AM CST 6:00 PM CST
Astronomical Twilight 6:30 AM CST 6:38 PM CST
Moon 5:29 PM CST (12/17) 8:19 AM CST (12/17)
Length of Visible Light 9h 29m
Length of Day
8h 15m
Full, 100% of the Moon is Illuminated
Dec 17
Full
Dec 25
Last Quarter
Jan 1
New
Jan 7
First Quarter
Jan 15
Full

Hourly Weather History & Observations

Time (CST) Temp. Windchill Dew Point Humidity Pressure Visibility Wind Dir Wind Speed Gust Speed Precip Events Conditions
12:15 AM 24.8 °F 7.1 °F 17.6 °F 74% 29.82 in 1.5 mi WNW 33.4 mph 39.1 mph N/A Rain Light Freezing Rain
12:35 AM 23.0 °F 4.9 °F 17.6 °F 80% 29.82 in 1.5 mi WNW 32.2 mph 40.3 mph N/A Rain Light Freezing Rain
12:55 AM 23.0 °F 5.4 °F 17.6 °F 80% 29.83 in 1.8 mi WNW 29.9 mph 42.6 mph N/A Rain Light Freezing Rain
1:15 AM 23.0 °F 5.4 °F 17.6 °F 80% 29.83 in 1.5 mi WNW 29.9 mph 42.6 mph N/A Rain Light Freezing Rain
1:35 AM 23.0 °F 5.4 °F 17.6 °F 80% 29.82 in 1.0 mi WNW 29.9 mph 43.7 mph N/A Rain Light Freezing Rain
1:55 AM 23.0 °F 4.4 °F 17.6 °F 80% 29.83 in 1.0 mi WNW 34.5 mph 44.9 mph 0.01 in Rain Light Freezing Rain
2:15 AM 23.0 °F 3.7 °F 15.8 °F 74% 29.84 in 1.2 mi NW 38.0 mph 47.2 mph N/A Rain Light Freezing Rain
2:35 AM 23.0 °F 5.4 °F 15.8 °F 74% 29.85 in 2.5 mi NW 29.9 mph 41.4 mph N/A   Mostly Cloudy
2:55 AM 23.0 °F 5.1 °F 15.8 °F 74% 29.86 in 3.0 mi WNW 31.1 mph 41.4 mph N/A Rain Light Freezing Rain
3:15 AM 23.0 °F 4.9 °F 15.8 °F 74% 29.86 in 2.5 mi NW 32.2 mph 43.7 mph N/A Rain Light Freezing Rain
3:35 AM 23.0 °F 5.7 °F 17.6 °F 80% 29.86 in 2.5 mi NW 28.8 mph 40.3 mph N/A Rain Light Freezing Rain
3:55 AM 21.2 °F 1.4 °F 17.6 °F 86% 29.86 in 0.8 mi NW 36.8 mph 52.9 mph 0.01 in Snow Light Snow
4:15 AM 21.2 °F 1.7 °F 15.8 °F 80% 29.88 in 2.0 mi NW 35.7 mph 43.7 mph N/A Snow Light Snow
4:35 AM 19.4 °F 0.2 °F 15.8 °F 86% 29.90 in 1.5 mi NW 31.1 mph 44.9 mph 0.01 in Snow Light Snow
4:55 AM 19.4 °F 0.5 °F 15.8 °F 86% 29.90 in 2.0 mi NW 29.9 mph 44.9 mph 0.01 in Snow Light Snow
5:15 AM 19.4 °F -1.1 °F 14.0 °F 80% 29.91 in 1.5 mi NW 36.8 mph 49.5 mph N/A Snow Light Snow
5:35 AM 17.6 °F -3.3 °F 14.0 °F 86% 29.92 in 1.2 mi NNW 35.7 mph 44.9 mph 0.01 in Snow Light Snow
5:55 AM 17.6 °F -3.1 °F 14.0 °F 86% 29.93 in 1.2 mi NW 34.5 mph 49.5 mph 0.01 in Snow Light Snow
6:15 AM 15.8 °F -4.1 °F 12.2 °F 86% 29.94 in 3.0 mi NW 28.8 mph 40.3 mph N/A Snow Light Snow
6:35 AM 15.8 °F -5.8 °F 10.4 °F 79% 29.95 in 2.0 mi NW 35.7 mph 43.7 mph 0.01 in Snow Light Snow
6:55 AM 15.8 °F -5.0 °F 10.4 °F 79% 29.95 in 2.5 mi NW 32.2 mph 40.3 mph 0.01 in Snow Light Snow
7:15 AM 14.0 °F -6.5 °F 10.4 °F 86% 29.96 in 2.0 mi NW 28.8 mph 38.0 mph N/A Snow Light Snow
7:35 AM 14.0 °F -5.5 °F 10.4 °F 86% 29.97 in 10.0 mi NW 25.3 mph 33.4 mph N/A Snow Light Snow
7:55 AM 14.0 °F -5.5 °F 10.4 °F 86% 29.98 in 7.0 mi NW 25.3 mph 33.4 mph N/A Snow Light Snow
8:15 AM 14.0 °F -2.5 °F 10.4 °F 86% 29.98 in 10.0 mi NW 17.3 mph 25.3 mph N/A   Clear
8:35 AM 15.8 °F -1.9 °F 10.4 °F 79% 29.98 in 10.0 mi NW 21.9 mph 25.3 mph N/A   Clear
8:55 AM 14.0 °F -6.2 °F 8.6 °F 79% 29.98 in 9.0 mi NW 27.6 mph 32.2 mph N/A Snow Light Snow
9:15 AM 14.0 °F -3.9 °F 8.6 °F 79% 29.99 in 9.0 mi NW 20.7 mph - N/A Snow Light Snow
9:35 AM 14.0 °F -5.5 °F 8.6 °F 79% 30.00 in 10.0 mi NNW 25.3 mph 33.4 mph N/A Snow Light Snow
9:55 AM 14.0 °F -0.8 °F 8.6 °F 79% 30.01 in 10.0 mi NW 13.8 mph - N/A   Clear
10:15 AM 14.0 °F -3.9 °F 8.6 °F 79% 30.01 in 10.0 mi NW 20.7 mph - N/A   Clear
10:35 AM 14.0 °F -3.4 °F 6.8 °F 73% 30.00 in 10.0 mi NW 19.6 mph - N/A   Clear
10:55 AM 14.0 °F -3.4 °F 6.8 °F 73% 30.01 in 10.0 mi NNW 19.6 mph 26.5 mph N/A   Clear
11:15 AM 14.0 °F -1.4 °F 6.8 °F 73% 30.01 in 10.0 mi NNW 15.0 mph - N/A   Clear
11:35 AM 14.0 °F -0.8 °F 5.0 °F 67% 30.00 in 10.0 mi NNW 13.8 mph - N/A   Clear
11:55 AM 14.0 °F -0.8 °F 6.8 °F 73% 30.00 in 10.0 mi NNW 13.8 mph - N/A   Clear
12:15 PM 14.0 °F -0.8 °F 6.8 °F 73% 29.99 in 10.0 mi NNW 13.8 mph - N/A   Clear
12:35 PM 12.2 °F -0.2 °F 6.8 °F 79% 29.99 in 10.0 mi NNW 9.2 mph - N/A   Clear
12:55 PM 12.2 °F -0.2 °F 6.8 °F 79% 29.98 in 10.0 mi North 9.2 mph - N/A   Clear
1:15 PM 12.2 °F 2.9 °F 6.8 °F 79% 29.98 in 10.0 mi North 5.8 mph - N/A   Clear
1:35 PM 12.2 °F 4.3 °F 6.8 °F 79% 29.97 in 10.0 mi North 4.6 mph - N/A   Clear
1:55 PM 14.0 °F - 8.6 °F 79% 29.97 in 10.0 mi Calm Calm - N/A   Clear
2:15 PM 14.0 °F - 8.6 °F 79% 29.96 in 10.0 mi Calm Calm - N/A   Clear
2:35 PM 14.0 °F 8.2 °F 8.6 °F 79% 29.96 in 10.0 mi South 3.5 mph - N/A   Clear
2:55 PM 15.8 °F 7.2 °F 8.6 °F 73% 29.95 in 10.0 mi SSE 5.8 mph - N/A   Clear
3:15 PM 14.0 °F 6.5 °F 8.6 °F 79% 29.94 in 10.0 mi ESE 4.6 mph - N/A   Clear
3:35 PM 15.8 °F 10.2 °F 10.4 °F 79% 29.94 in 10.0 mi SE 3.5 mph - N/A   Mostly Cloudy
3:55 PM 15.8 °F - 10.4 °F 79% 29.94 in 10.0 mi Calm Calm - N/A   Overcast
4:15 PM 15.8 °F 7.2 °F 12.2 °F 86% 29.94 in 10.0 mi SW 5.8 mph - N/A   Overcast
4:35 PM 15.8 °F 8.6 °F 12.2 °F 86% 29.94 in 10.0 mi WSW 4.6 mph - N/A   Overcast
4:55 PM 15.8 °F 6.1 °F 10.4 °F 79% 29.94 in 10.0 mi SSW 6.9 mph - N/A   Overcast
5:15 PM 15.8 °F 4.2 °F 10.4 °F 79% 29.93 in 10.0 mi SW 9.2 mph - N/A   Overcast
5:35 PM 15.8 °F 5.1 °F 10.4 °F 79% 29.92 in 10.0 mi SW 8.1 mph - N/A   Overcast
5:55 PM 15.8 °F 4.2 °F 10.4 °F 79% 29.92 in 10.0 mi SW 9.2 mph - N/A   Overcast
6:15 PM 14.0 °F 2.9 °F 12.2 °F 93% 29.91 in 10.0 mi SSW 8.1 mph - N/A   Overcast
6:35 PM 15.8 °F 4.2 °F 12.2 °F 86% 29.88 in 10.0 mi SSW 9.2 mph - N/A   Overcast
6:55 PM 15.8 °F 2.7 °F 12.2 °F 86% 29.87 in 10.0 mi SSW 11.5 mph - N/A   Overcast
7:15 PM 15.8 °F 3.4 °F 12.2 °F 86% 29.85 in 10.0 mi SSW 10.4 mph - N/A   Overcast
7:35 PM 15.8 °F 3.4 °F 12.2 °F 86% 29.83 in 10.0 mi South 10.4 mph - N/A   Overcast
7:55 PM 15.8 °F 5.1 °F 14.0 °F 93% 29.82 in 10.0 mi South 8.1 mph - N/A   Overcast
8:15 PM 15.8 °F 2.7 °F 14.0 °F 93% 29.82 in 10.0 mi SSW 11.5 mph - N/A   Overcast
8:35 PM 15.8 °F 2.7 °F 14.0 °F 93% 29.80 in 10.0 mi South 11.5 mph - N/A   Overcast
8:55 PM 15.8 °F 5.1 °F 14.0 °F 93% 29.78 in 10.0 mi South 8.1 mph - N/A   Overcast
9:15 PM 15.8 °F 2.7 °F 14.0 °F 93% 29.78 in 10.0 mi South 11.5 mph - N/A   Overcast
9:35 PM 15.8 °F 5.1 °F 14.0 °F 93% 29.77 in 10.0 mi South 8.1 mph - N/A   Partly Cloudy
9:55 PM 15.8 °F 3.4 °F 12.2 °F 86% 29.75 in 10.0 mi South 10.4 mph - N/A   Clear
10:15 PM 15.8 °F 3.4 °F 12.2 °F 86% 29.73 in 10.0 mi South 10.4 mph - N/A   Clear
10:35 PM 15.8 °F 2.7 °F 12.2 °F 86% 29.71 in 10.0 mi South 11.5 mph 16.1 mph N/A   Clear
10:55 PM 15.8 °F 2.1 °F 14.0 °F 93% 29.70 in 10.0 mi South 12.7 mph - N/A   Clear
11:15 PM 15.8 °F 2.7 °F 14.0 °F 93% 29.69 in 10.0 mi South 11.5 mph - N/A   Scattered Clouds
11:35 PM 17.6 °F 5.7 °F 15.8 °F 93% 29.67 in 10.0 mi South 10.4 mph - N/A   Overcast
11:55 PM 17.6 °F 4.3 °F 15.8 °F 93% 29.66 in 10.0 mi South 12.7 mph - N/A   Overcast